| time (UTC) | temp F | wind direction | speed MPH | gust MPH | rain 1hr in | rain 24hr in | rain mn in | humidity % | barometer mb |
| 20260902214444 | 54 | 351 | 4.0 | 6.0 | 0.00 | 0.00 | 0.00 | 98 | 1002.3 |
| 20260902212443 | 54 | 346 | 3.0 | 5.0 | 0.00 | 0.00 | 0.00 | 98 | 1002.3 |
| 20260902210443 | 54 | 274 | 2.0 | 4.0 | 0.00 | 0.00 | 0.00 | 99 | 1002.4 |
| 20260902204442 | 54 | 269 | 2.0 | 3.0 | 0.00 | 0.00 | 0.00 | 98 | 1002.4 |
| 20260902202442 | 54 | 268 | 2.0 | 3.0 | 0.00 | 0.00 | 0.00 | 98 | 1002.5 |
| 20260902200112 | 54 | 267 | 3.0 | 3.0 | 0.00 | 0.00 | 0.00 | 99 | 1002.6 |
| 20260902194442 | 54 | 277 | 3.0 | 4.0 | 0.00 | 0.00 | 0.00 | 99 | 1002.5 |
| 20260902192444 | 55 | 271 | 2.0 | 3.0 | 0.00 | 0.00 | 0.00 | 97 | 1002.5 |
| 20260902190443 | 55 | 310 | 2.0 | 3.0 | 0.00 | 0.00 | 0.00 | 97 | 1002.5 |
| 20260902184443 | 55 | 16 | 4.0 | 6.0 | 0.00 | 0.00 | 0.00 | 98 | 1002.5 |
| 20260902180441 | 55 | 25 | 4.0 | 6.0 | 0.00 | 0.00 | 0.00 | 97 | 1002.5 |
| 20260902174442 | 55 | 19 | 5.0 | 7.0 | 0.00 | 0.00 | 0.00 | 96 | 1002.5 |
| 20260902172440 | 56 | 34 | 6.0 | 8.0 | 0.00 | 0.00 | 0.00 | 95 | 1002.6 |
| 20260902170443 | 56 | 13 | 3.0 | 5.0 | 0.00 | 0.00 | 0.00 | 93 | 1002.7 |
| 20260902164442 | 56 | 9 | 4.0 | 5.0 | 0.00 | 0.00 | 0.00 | 93 | 1002.7 |
| 20260902160441 | 56 | 11 | 5.0 | 6.0 | 0.00 | 0.00 | 0.00 | 93 | 1002.7 |
| 20260902154441 | 57 | 15 | 6.0 | 7.0 | 0.00 | 0.00 | 0.00 | 90 | 1002.6 |
| 20260902152440 | 57 | 23 | 5.0 | 7.0 | 0.00 | 0.00 | 0.00 | 89 | 1002.6 |
| 20260902150443 | 57 | 25 | 6.0 | 8.0 | 0.00 | 0.00 | 0.00 | 90 | 1002.6 |
| 20260902144440 | 57 | 20 | 6.0 | 8.0 | 0.00 | 0.00 | 0.00 | 90 | 1002.6 |
| 20260902142442 | 57 | 16 | 4.0 | 7.0 | 0.00 | 0.00 | 0.00 | 91 | 1002.6 |
| 20260902140442 | 58 | 23 | 6.0 | 8.0 | 0.00 | 0.00 | 0.00 | 89 | 1002.6 |
| 20260902134441 | 58 | 38 | 5.0 | 8.0 | 0.00 | 0.00 | 0.00 | 89 | 1002.6 |
| 20260902132440 | 57 | 10 | 4.0 | 6.0 | 0.00 | 0.00 | 0.00 | 91 | 1002.7 |
| 20260902130441 | 57 | 44 | 5.0 | 7.0 | 0.00 | 0.00 | 0.00 | 90 | 1002.8 |
| 20260902124442 | 57 | 63 | 5.0 | 6.0 | 0.00 | 0.00 | 0.00 | 90 | 1002.8 |
| 20260902122439 | 57 | 34 | 6.0 | 8.0 | 0.00 | 0.00 | 0.00 | 90 | 1002.7 |
| 20260902120439 | 57 | 35 | 5.0 | 7.0 | 0.00 | 0.00 | 0.00 | 90 | 1002.7 |
| 20260902112442 | 56 | 38 | 4.0 | 7.0 | 0.00 | 0.00 | 0.00 | 91 | 1002.8 |
| 20260902110440 | 56 | 35 | 6.0 | 8.0 | 0.00 | 0.00 | 0.00 | 94 | 1002.8 |
| 20260902104441 | 56 | 36 | 5.0 | 7.0 | 0.00 | 0.00 | 0.00 | 92 | 1002.8 |
| 20260902102440 | 56 | 32 | 6.0 | 9.0 | 0.00 | 0.00 | 0.00 | 93 | 1002.8 |
| 20260902100439 | 56 | 29 | 6.0 | 9.0 | 0.00 | 0.00 | 0.00 | 93 | 1002.7 |
| 20260902092111 | 55 | 42 | 7.0 | 11.0 | 0.00 | 0.00 | 0.00 | 94 | 1002.7 |
| 20260902090441 | 55 | 44 | 7.0 | 10.0 | 0.00 | 0.00 | 0.00 | 94 | 1002.7 |
| 20260902084439 | 55 | 41 | 9.0 | 11.0 | 0.00 | 0.00 | 0.00 | 95 | 1002.5 |
| 20260902082441 | 55 | 42 | 9.0 | 12.0 | 0.00 | 0.00 | 0.00 | 96 | 1002.5 |
| 20260902080439 | 55 | 30 | 7.0 | 8.0 | 0.00 | 0.00 | 0.00 | 96 | 1002.5 |
| 20260902072438 | 54 | 31 | 6.0 | 9.0 | 0.00 | 0.00 | 0.00 | 97 | 1002.6 |
| 20260902070439 | 54 | 29 | 6.0 | 9.0 | 0.00 | 0.00 | 0.00 | 97 | 1002.6 |
| 20260902064439 | 54 | 35 | 7.0 | 10.0 | 0.00 | 0.00 | 0.00 | 97 | 1002.6 |
| 20260902062439 | 54 | 29 | 6.0 | 9.0 | 0.00 | 0.00 | 0.00 | 97 | 1002.6 |
| 20260902060441 | 54 | 33 | 6.0 | 10.0 | 0.00 | 0.00 | 0.00 | 96 | 1002.6 |
| 20260902052440 | 54 | 37 | 8.0 | 11.0 | 0.00 | 0.00 | 0.00 | 97 | 1002.5 |
| 20260902050440 | 54 | 43 | 8.0 | 10.0 | 0.00 | 0.00 | 0.00 | 98 | 1002.5 |
| 20260902044438 | 54 | 45 | 8.0 | 9.0 | 0.00 | 0.00 | 0.00 | 98 | 1002.5 |
| 20260902042439 | 54 | 39 | 8.0 | 11.0 | 0.00 | 0.00 | 0.00 | 97 | 1002.7 |
| 20260902040441 | 54 | 30 | 9.0 | 13.0 | 0.00 | 0.00 | 0.00 | 97 | 1002.7 |
| 20260902034440 | 55 | 32 | 8.0 | 11.0 | 0.00 | 0.00 | 0.00 | 98 | 1002.8 |
| 20260902032441 | 55 | 34 | 8.0 | 10.0 | 0.00 | 0.00 | 0.00 | 98 | 1002.8 |
| 20260902030440 | 55 | 36 | 7.0 | 9.0 | 0.00 | 0.00 | 0.00 | 97 | 1002.8 |
| 20260902024442 | 55 | 42 | 7.0 | 9.0 | 0.00 | 0.00 | 0.00 | 98 | 1002.7 |
| 20260902022440 | 55 | 37 | 7.0 | 9.0 | 0.00 | 0.00 | 0.00 | 98 | 1002.7 |
| 20260902020439 | 55 | 46 | 7.0 | 9.0 | 0.00 | 0.00 | 0.00 | 98 | 1002.6 |
| 20260902014441 | 56 | 59 | 7.0 | 9.0 | 0.00 | 0.00 | 0.00 | 98 | 1002.8 |
| 20260902012442 | 56 | 58 | 8.0 | 11.0 | 0.00 | 0.00 | 0.00 | 98 | 1002.8 |
| 20260902010439 | 56 | 56 | 9.0 | 12.0 | 0.00 | 0.00 | 0.00 | 98 | 1002.9 |
| 20260902004441 | 56 | 51 | 11.0 | 13.0 | 0.00 | 0.00 | 0.00 | 98 | 1002.9 |
| 20260902002441 | 56 | 37 | 10.0 | 12.0 | 0.00 | 0.00 | 0.00 | 99 | 1002.9 |
| 20260902000440 | 56 | 34 | 9.0 | 11.0 | 0.00 | 0.00 | 0.00 | 99 | 1003.0 |
| 20260901234440 | 56 | 42 | 7.0 | 9.0 | 0.00 | 0.00 | 0.00 | 99 | 1003.1 |
| 20260901232439 | 56 | 43 | 8.0 | 10.0 | 0.00 | 0.00 | 0.00 | 99 | 1003.1 |
| 20260901230441 | 56 | 38 | 6.0 | 8.0 | 0.00 | 0.00 | 0.00 | 99 | 1003.2 |
| 20260901224440 | 56 | 37 | 7.0 | 9.0 | 0.00 | 0.00 | 0.00 | 99 | 1003.2 |
| 20260901222440 | 56 | 29 | 5.0 | 7.0 | 0.00 | 0.00 | 0.00 | 99 | 1003.2 |
| 20260901220439 | 56 | 37 | 5.0 | 6.0 | 0.00 | 0.00 | 0.00 | 99 | 1003.3 |